User: anonymous   Login
Location: Tel Aviv
(32.0670°N, 34.7670°E)
Time: 20:05:59
(UTC+03:00)
Language:

Transit 2A - Orbit

View from above orbital plane
View from above orbital plane
View from above satellite
View from above satellite

Ground track
Ground track

The orbit data is extracted from the following two-line orbital elements,

1    45U 60007A   24206.97576808  .00000351  00000-0  11125-3 0  9998
2    45  66.6945  29.8189 0258445 303.3782  54.2826 14.34803324337561
Epoch (UTC): 24 July 2024 23:25:06
Eccentricity: 0.0258445
inclination: 66.6945°
perigee height: 591 km
apogee height: 960 km
right ascension of ascending node: 29.8189°
argument of perigee: 303.3782°
revolutions per day: 14.34803324
mean anomaly at epoch: 54.2826°
orbit number at epoch: 33756

The dashed part of the orbit path shows where the satellite is in the earth's shadow,  

DLR